Weather Roundup
Issued by NWS

Home | Current Version | Previous Version | Graphics & Text | Print | Product List | Glossary Off
Versions: 1 2 3 4 5 6 7 8 9 10 11 12 13 14 15 16 17 18 19 20 21 22 23 24 25 26 27 28 29 30 31 32 33 34 35 36 37 38 39 40 41 42 43 44 45 46 47 48 49 50

000
NZUS93 KARX 300210
HRRWXR

CURRENT HOURLY OBSERVATIONS ACROSS
MUCH OF THE UPPER MISSISSIPPI VALLEY
NATIONAL WEATHER SERVICE LA CROSSE WI
900 PM CDT SAT AUG 29 2015


...SOUTHEAST MINNESOTA...


CITY           SKY/WX    TMP DP  RH WIND       PRES   REMARKS
ROCHESTER      PTCLDY    63  61  93 SE6       30.06R
ROCHESTER/MAYO FAIR      66  64  93 SE8       30.05S
WINONA         CLEAR     63  61  94 E3        30.05R
AUSTIN         CLOUDY    68  64  88 SE3       30.04S
ALBERT LEA     PTCLDY    64  64 100 CALM      30.04R
DODGE CENTER   PTCLDY    64  63  94 SE6       30.05R
PRESTON        CLEAR     64  61  90 CALM      30.07R
OWATONNA       CLEAR     63  61  94 CALM      30.04R
FARIBAULT      FOG       63  63 100 CALM      30.04R VSB 1/2
$$

...ELSEWHERE IN MINNESOTA...


CITY           SKY/WX    TMP DP  RH WIND       PRES   REMARKS
MINNEAPOLIS    MOCLDY    69  63  81 S6        30.01R
INTNL FALLS    PTCLDY    66  64  93 SE6       29.92R
DULUTH         PTCLDY    67  61  81 SW6       30.00R
RED WING       PTCLDY    64  63  94 CALM      30.02R
REDWOOD FALLS  CLEAR     66  64  93 SE8       29.99S
MANKATO        PTCLDY    64  61  88 S3        30.02R
WORTHINGTON    PTCLDY    64  61  88 S8        30.03R
FAIRMONT       PTCLDY    63  55  77 S7        30.03S
$$

...SOUTHWEST WISCONSIN...


CITY           SKY/WX    TMP DP  RH WIND       PRES   REMARKS
LA CROSSE      CLOUDY    68  60  75 SE7       30.04S
PRAIRIE DU CHI CLOUDY    67  62  82 E3        30.05R
BOSCOBEL       CLOUDY    68  64  87 N3        30.05R
LONE ROCK      CLOUDY    67  63  87 NE3       30.06R
PLATTEVILLE    CLOUDY    67  64  90 NE3       30.07R
FORT MC COY    CLOUDY    66  59  79 CALM      30.06S
CAMP DOUGLAS   CLOUDY    65  65 100 CALM      30.05S
VIROQUA          N/A     65  64  99 SE5       30.06S
WIS DELLS      CLOUDY    66  61  84 CALM      30.06S
$$

...ELSEWHERE IN WISCONSIN...


CITY           SKY/WX    TMP DP  RH WIND       PRES   REMARKS
MILWAUKEE      DRZL/FOG  62  61  96 N7        30.04S VSB 1/2
MADISON        CLOUDY    65  62  90 CALM      30.06R
GREEN BAY      CLOUDY    65  62  90 CALM      30.06R
EAU CLAIRE     PTCLDY    63  60  90 CALM      30.03S
BLACK RVR FLS  CLOUDY    63  63 100 CALM      30.05R
MEDFORD        CLEAR     57  57  99 S6        30.06S
WAUSAU         CLEAR     62  59  90 S5        30.05R
WIS RAPIDS     CLOUDY    65  59  81 E6        30.08R
MARSHFIELD     CLOUDY    64  58  80 CALM      30.07R
RICE LAKE      MOCLDY    63  60  90 S5        30.05S
$$

...NORTHEAST IOWA...


CITY           SKY/WX    TMP DP  RH WIND       PRES   REMARKS
DECORAH        CLOUDY    66  64  94 SE5       30.05S
MASON CITY     PTCLDY    63  63 100 S5        30.06S
CHARLES CITY   PTCLDY    64  64 100 CALM      30.06R
OELWEIN        CLOUDY    66  63  88 SE5       30.06S
$$

...ELSEWHERE IN IOWA...


CITY           SKY/WX    TMP DP  RH WIND       PRES   REMARKS
DES MOINES     CLOUDY    70  64  81 NE5       30.04R
IOWA CITY      MOCLDY    71  67  87 N7        30.04R
FORT DODGE     CLOUDY    64  61  88 CALM      30.07R
$$

...NORTHERN ILLINOIS...


CITY           SKY/WX    TMP DP  RH WIND       PRES   REMARKS
CHICAGO-OHARE  LGT RAIN  67  65  93 N7        30.03R FOG
CHICAGO-MIDWAY LGT RAIN  70  66  87 N7        30.02R FOG
MOLINE         CLEAR     67  64  90 CALM      30.03R
ROCKFORD       DRIZZLE   68  64  87 NE7       30.06R
PEORIA         CLOUDY    76  68  76 NE6       30.02R
$$

NOTE: "FAIR" INDICATES FEW OR NO CLOUDS BELOW 12,000 FEET WITH NO
SIGNIFICANT WEATHER AND/OR OBSTRUCTIONS TO VISIBILITY. WIND
SPEEDS ARE IN MILES-PER-HOUR.



USA.gov is the U.S. government's official web portal to all federal, state and local government web resources and services.